FW2862 Weather Reports


time (UTC)temp
C
wind
direction
speed
KPH
gust
KPH
rain 1hr
cm
rain 24hr
cm
rain mn
cm
humidity
%
barometer
mb
20260505034220 17 162 0.0 0.0 0.00 0.00 0.00 61 1010.2
20260505033721 17 162 0.0 0.0 0.00 0.00 0.00 61 1010.2
20260505033221 17 162 0.0 0.0 0.00 0.00 0.00 60 1010.3
20260505032719 17 162 0.0 0.0 0.00 0.00 0.00 60 1010.3
20260505032445 17 161 0.0 0.0 0.00 0.00 0.00 59 1010.3
20260505031946 17 161 0.0 0.0 0.00 0.00 0.00 59 1010.2
20260505031220 17 161 0.0 1.6 0.00 0.00 0.00 59 1010.1
20260505030718 18 161 0.0 1.6 0.00 0.00 0.00 59 1010.2
20260505030215 18 161 0.0 0.0 0.00 0.00 0.00 58 1010.1
20260505025712 18 161 0.0 0.0 0.00 0.00 0.00 58 1010.1
20260505025213 18 161 0.0 0.0 0.00 0.00 0.00 58 1010.1
20260505024932 18 161 0.0 0.0 0.00 0.00 0.00 57 1010.2
20260505024213 18 161 0.0 0.0 0.00 0.00 0.00 57 1010.3
20260505023712 18 161 0.0 0.0 0.00 0.00 0.00 56 1010.3
20260505023211 18 161 0.0 0.0 0.00 0.00 0.00 56 1010.2
20260505022939 18 161 0.0 1.6 0.00 0.00 0.00 55 1010.2
20260505022212 18 161 0.0 1.6 0.00 0.00 0.00 54 1010.1
20260505021711 18 162 0.0 1.6 0.00 0.00 0.00 54 1010.0
20260505021434 18 162 0.0 0.0 0.00 0.00 0.00 54 1010.0
20260505020702 18 162 0.0 0.0 0.00 0.00 0.00 54 1010.0
20260505020151 18 162 0.0 0.0 0.00 0.00 0.00 54 1010.0
20260505015638 18 162 0.0 0.0 0.00 0.00 0.00 55 1010.0
20260505015118 18 162 0.0 0.0 0.00 0.00 0.00 56 1010.1
20260505014605 18 162 0.0 0.0 0.00 0.00 0.00 55 1010.0
20260505014055 18 162 0.0 0.0 0.00 0.00 0.00 56 1009.9
20260505013757 18 162 0.0 0.0 0.00 0.00 0.00 55 1009.8
20260505013246 19 162 0.0 0.0 0.00 0.00 0.00 54 1009.7
20260505012510 19 162 0.0 0.0 0.00 0.00 0.00 54 1009.7
20260505011950 19 162 0.0 0.0 0.00 0.00 0.00 51 1009.6
20260505011438 20 162 0.0 0.0 0.00 0.00 0.00 50 1009.7
20260505010926 20 162 0.0 0.0 0.00 0.00 0.00 50 1009.7
20260505010406 20 162 0.0 0.0 0.00 0.00 0.00 49 1009.6
20260505005900 20 162 0.0 0.0 0.00 0.00 0.00 49 1009.6
20260505005355 20 162 0.0 0.0 0.00 0.00 0.00 48 1009.5
20260505004835 20 162 0.0 0.0 0.00 0.00 0.00 49 1009.5
20260505004334 20 162 0.0 0.0 0.00 0.00 0.00 48 1009.5
20260505003828 21 162 0.0 0.0 0.00 0.00 0.00 48 1009.5
20260505003533 21 162 0.0 0.0 0.00 0.00 0.00 47 1009.3
20260505002804 21 162 0.0 0.0 0.00 0.00 0.00 46 1009.4
20260505002258 21 162 0.0 0.0 0.00 0.00 0.00 46 1009.3
20260505001746 21 162 0.0 0.0 0.00 0.00 0.00 45 1009.4
20260505001235 21 162 0.0 0.0 0.00 0.00 0.00 45 1009.4
20260505000954 21 162 0.0 0.0 0.00 0.00 0.00 45 1009.4
20260505000442 21 162 0.0 0.0 0.00 0.00 0.00 45 1009.3
20260504235711 21 162 0.0 0.0 0.00 0.00 0.00 44 1009.2
20260504235426 21 162 0.0 1.6 0.00 0.00 0.00 44 1009.2
20260504234652 22 162 0.0 1.6 0.00 0.00 0.00 43 1009.2
20260504234145 22 162 0.0 1.6 0.00 0.00 0.00 43 1009.2
20260504233641 22 162 0.0 1.6 0.00 0.00 0.00 43 1009.2
20260504233126 22 162 0.0 1.6 0.00 0.00 0.00 42 1009.2
20260504232621 22 142 0.0 1.6 0.00 0.00 0.00 41 1009.2
20260504232118 22 142 0.0 3.2 0.00 0.00 0.00 41 1009.1
20260504231617 22 142 1.6 6.4 0.00 0.00 0.00 40 1009.1
20260504231115 22 142 1.6 6.4 0.00 0.00 0.00 40 1009.1
20260504231109 22 154 1.6 4.8 0.00 0.00 0.00 40 1009.1
20260504230115 22 141 1.6 4.8 0.00 0.00 0.00 39 1009.2
20260504225611 22 140 1.6 4.8 0.00 0.00 0.00 39 1009.2
20260504225114 22 121 0.0 4.8 0.00 0.00 0.00 39 1009.2
20260504224612 22 146 1.6 8.0 0.00 0.00 0.00 40 1009.2
20260504224328 23 146 1.6 8.0 0.00 0.00 0.00 39 1009.2
20260504223607 23 126 1.6 8.0 0.00 0.00 0.00 40 1009.1
20260504223107 23 148 1.6 4.8 0.00 0.00 0.00 39 1008.9
20260504222608 23 154 1.6 4.8 0.00 0.00 0.00 38 1009.1
20260504222107 23 111 1.6 4.8 0.00 0.00 0.00 38 1009.0
20260504221608 23 155 1.6 4.8 0.00 0.00 0.00 38 1009.0
20260504221102 23 123 0.0 3.2 0.00 0.00 0.00 38 1008.9
20260504220603 23 124 0.0 3.2 0.00 0.00 0.00 38 1009.0
20260504220059 23 127 0.0 3.2 0.00 0.00 0.00 38 1009.0
20260504215820 23 127 0.0 3.2 0.00 0.00 0.00 37 1009.0
20260504215056 23 127 1.6 4.8 0.00 0.00 0.00 36 1008.9
20260504214558 23 126 1.6 4.8 0.00 0.00 0.00 38 1009.0
20260504214542 23 133 0.0 3.2 0.00 0.00 0.00 40 1009.0
20260504213555 23 125 1.6 3.2 0.00 0.00 0.00 37 1009.0
20260504213052 23 119 1.6 3.2 0.00 0.00 0.00 37 1009.0
20260504212814 23 149 0.0 3.2 0.00 0.00 0.00 37 1009.1
20260504212048 23 148 1.6 4.8 0.00 0.00 0.00 37 1009.0
20260504211815 23 146 1.6 4.8 0.00 0.00 0.00 36 1009.1
20260504211043 23 136 0.0 3.2 0.00 0.00 0.00 37 1009.1
20260504210542 23 111 1.6 4.8 0.00 0.00 0.00 36 1009.2
20260504210532 23 142 1.6 4.8 0.00 0.00 0.00 37 1009.2
20260504205535 23 135 1.6 8.0 0.00 0.00 0.00 36 1009.1
20260504205029 24 112 1.6 8.0 0.00 0.00 0.00 36 1009.1
20260504204530 24 121 0.0 3.2 0.00 0.00 0.00 37 1009.1
20260504204032 24 343 0.0 1.6 0.00 0.00 0.00 36 1009.2
20260504203531 24 340 0.0 4.8 0.00 0.00 0.00 36 1009.2
20260504203028 24 339 1.6 4.8 0.00 0.00 0.00 38 1009.3
20260504202528 24 103 1.6 4.8 0.00 0.00 0.00 37 1009.3
20260504202026 24 153 0.0 8.0 0.00 0.00 0.00 35 1009.5
20260504201524 24 153 1.6 8.0 0.00 0.00 0.00 36 1009.6
20260504201025 24 9 1.6 3.2 0.00 0.00 0.00 38 1009.6
20260504200523 24 286 1.6 3.2 0.00 0.00 0.00 38 1009.5
20260504200022 24 107 0.0 3.2 0.00 0.00 0.00 38 1009.6
20260504195520 23 15 0.0 3.2 0.00 0.00 0.00 37 1009.6
20260504195018 23 24 1.6 4.8 0.00 0.00 0.00 36 1009.7
20260504194516 23 24 1.6 8.0 0.00 0.00 0.00 37 1009.9
20260504194014 23 226 1.6 8.0 0.00 0.00 0.00 36 1009.9
20260504193508 23 86 0.0 8.0 0.00 0.00 0.00 37 1010.1
20260504192957 23 61 1.6 4.8 0.00 0.00 0.00 38 1010.1
20260504192448 23 61 1.6 4.8 0.00 0.00 0.00 37 1010.2
20260504192201 23 22 1.6 6.4 0.00 0.00 0.00 38 1010.4
20260504191430 23 342 1.6 6.4 0.00 0.00 0.00 38 1010.6
20260504190933 23 309 1.6 6.4 0.00 0.00 0.00 38 1010.5
20260504190431 23 46 1.6 6.4 0.00 0.00 0.00 40 1010.6
20260504185934 23 313 1.6 6.4 0.00 0.00 0.00 40 1010.7
20260504185431 23 44 1.6 6.4 0.00 0.00 0.00 39 1010.8
20260504184932 23 319 1.6 8.0 0.00 0.00 0.00 38 1010.9
20260504184431 22 84 1.6 8.0 0.00 0.00 0.00 39 1011.0
20260504183932 22 44 1.6 6.4 0.00 0.00 0.00 37 1011.1
20260504183425 22 9 1.6 6.4 0.00 0.00 0.00 38 1011.1
20260504182917 22 15 1.6 8.0 0.00 0.00 0.00 39 1011.2
20260504182409 22 105 1.6 8.0 0.00 0.00 0.00 42 1011.3
20260504181907 22 75 1.6 4.8 0.00 0.00 0.00 40 1011.2
20260504181407 22 59 1.6 6.4 0.00 0.00 0.00 39 1011.3
20260504180906 22 338 1.6 9.7 0.00 0.00 0.00 39 1011.4
20260504180406 22 343 1.6 9.7 0.00 0.00 0.00 38 1011.5
20260504175904 22 290 1.6 4.8 0.00 0.00 0.00 39 1011.6
20260504175402 22 70 0.0 8.0 0.00 0.00 0.00 41 1011.5
20260504174903 21 98 1.6 8.0 0.00 0.00 0.00 40 1011.6
20260504174403 21 326 1.6 6.4 0.00 0.00 0.00 39 1011.6
20260504174335 21 345 1.6 4.8 0.00 0.00 0.00 38 1011.7
20260504173340 21 343 1.6 3.2 0.00 0.00 0.00 38 1011.8
20260504172829 21 146 1.6 6.4 0.00 0.00 0.00 40 1011.9
20260504172307 21 355 1.6 6.4 0.00 0.00 0.00 38 1011.8
20260504171756 21 266 1.6 8.0 0.00 0.00 0.00 39 1012.1
20260504171244 21 327 1.6 8.0 0.00 0.00 0.00 38 1012.1
20260504170730 21 63 1.6 4.8 0.00 0.00 0.00 40 1012.1
20260504170228 21 62 1.6 6.4 0.00 0.00 0.00 38 1012.2
20260504160226 19 298 0.0 4.8 0.00 0.00 0.00 42 1012.8
20260504160213 19 246 1.6 6.4 0.00 0.00 0.00 40 1012.9
20260504150936 18 346 1.6 4.8 0.00 0.00 0.00 41 1013.4
20260504150218 17 336 0.0 4.8 0.00 0.00 0.00 43 1013.4
20260504141141 16 340 0.0 3.2 0.00 0.00 0.00 48 1013.4
20260504140858 16 5 0.0 3.2 0.00 0.00 0.00 53 1013.5
20260504140120 15 5 0.0 3.2 0.00 0.00 0.00 55 1013.6
20260504130454 12 330 0.0 3.2 0.00 0.00 0.00 62 1013.9
20260504120310 10 330 0.0 0.0 0.00 0.00 0.00 71 1014.3
20260504120248 10 330 0.0 1.6 0.00 0.00 0.00 71 1014.4
20260504110628 8 254 0.0 0.0 0.00 0.00 0.00 79 1014.4
20260504110123 8 254 0.0 0.0 0.00 0.00 0.00 79 1014.4
20260504100447 9 223 0.0 0.0 0.00 0.00 0.00 77 1014.3
20260504100430 9 223 0.0 0.0 0.00 0.00 0.00 77 1014.3
20260504081924 9 223 0.0 0.0 0.00 0.00 0.00 76 1014.7
20260504081422 9 223 0.0 0.0 0.00 0.00 0.00 74 1014.7
20260504081143 9 223 0.0 0.0 0.00 0.00 0.00 75 1014.7
20260504080423 9 223 0.0 0.0 0.00 0.00 0.00 75 1014.7
20260504080148 9 223 0.0 0.0 0.00 0.00 0.00 72 1014.8
20260504060232 7 223 0.0 0.0 0.00 0.00 0.00 77 1015.1
20260504045556 7 223 0.0 0.0 0.00 0.00 0.00 66 1015.0
20260504045051 7 223 0.0 0.0 0.00 0.00 0.00 67 1015.0
20260504044758 7 223 0.0 0.0 0.00 0.00 0.00 66 1015.0
20260504044030 7 223 0.0 0.0 0.00 0.00 0.00 68 1014.9
20260504043744 7 223 0.0 0.0 0.00 0.00 0.00 67 1015.0
20260504043011 7 223 0.0 0.0 0.00 0.00 0.00 67 1015.0
20260504042503 7 223 0.0 0.0 0.00 0.00 0.00 67 1015.0
20260504041959 7 223 0.0 0.0 0.00 0.00 0.00 66 1015.0
20260504041445 7 223 0.0 1.6 0.00 0.00 0.00 67 1015.0
20260504040933 7 223 0.0 1.6 0.00 0.00 0.00 68 1015.0
20260504040432 7 223 0.0 1.6 0.00 0.00 0.00 69 1015.0
20260504035918 7 223 0.0 0.0 0.00 0.00 0.00 70 1015.0
20260504035416 7 223 0.0 0.0 0.00 0.00 0.00 72 1015.0